When you browse on this site, cookies collect data to enhance your experience and personalize the content and advertising you see.
Visit our Privacy Policy to learn more. By continuing to use the site, you agree to this use of cookies and data.
  • In Sweden
  • List of Countries
  • For 7 days
  • Water Temperature
  • Satellite Maps
  • Weather Map
  • Weather Widgets
  • user-avatar
    Login

    Hourly Weather Titusville

    Today, 19 May, Sunday

    Time Temperature Precipitation Wind Pressure Humidity
    00:00 +24°C° 0 mm 1 mps 762 mmHg 86%
    01:00 +23°C° 0 mm 1 mps 762 mmHg 89%
    02:00 +23°C° 0 mm 1 mps 762 mmHg 90%
    03:00 +23°C° 0 mm 1 mps 762 mmHg 91%
    04:00 +23°C° 0 mm 1 mps 762 mmHg 92%
    05:00 +23°C° 0 mm 1 mps 762 mmHg 88%
    06:00 +22°C° 0 mm 0 mps 762 mmHg 85%
    07:00 +23°C° 0 mm 0 mps 763 mmHg 81%
    08:00 +27°C° 0 mm 1 mps 763 mmHg 71%
    09:00 +29°C° 0 mm 1 mps 763 mmHg 61%
    10:00 +31°C° 0 mm 2 mps 763 mmHg 51%
    11:00 +33°C° 0 mm 3 mps 763 mmHg 48%
    12:00 +34°C° 0 mm 3 mps 763 mmHg 45%
    13:00 +34°C° 0 mm 4 mps 763 mmHg 42%
    14:00 +34°C° 0 mm 4 mps 762 mmHg 44%
    15:00 +34°C° 0 mm 4 mps 762 mmHg 47%
    16:00 +33°C° 0 mm 4 mps 762 mmHg 49%
    17:00 +32°C° 0 mm 4 mps 762 mmHg 57%
    18:00 +29°C° 0 mm 4 mps 762 mmHg 65%
    19:00 +27°C° 0 mm 3 mps 762 mmHg 73%
    20:00 +27°C° 0 mm 3 mps 762 mmHg 76%
    21:00 +26°C° 0 mm 3 mps 762 mmHg 79%
    22:00 +26°C° 0 mm 3 mps 763 mmHg 82%
    23:00 +25°C° 0 mm 3 mps 762 mmHg 84%

    Tomorrow, 20 May, Monday

    Time Temperature Precipitation Wind Pressure Humidity
    00:00 +25°C° 0 mm 3 mps 762 mmHg 85%
    01:00 +25°C° 0 mm 2 mps 762 mmHg 87%
    02:00 +25°C° 0 mm 2 mps 762 mmHg 88%
    03:00 +24°C° 0 mm 2 mps 762 mmHg 89%
    04:00 +24°C° 0 mm 1 mps 762 mmHg 91%
    05:00 +25°C° 0 mm 1 mps 762 mmHg 87%
    06:00 +24°C° 0 mm 0 mps 762 mmHg 84%
    07:00 +24°C° 0 mm 0 mps 762 mmHg 80%
    08:00 +27°C° 0.1 mm 0 mps 763 mmHg 71%
    09:00 +29°C° 0.1 mm 0 mps 763 mmHg 61%
    10:00 +33°C° 0.1 mm 1 mps 763 mmHg 51%
    11:00 +33°C° 0 mm 1 mps 763 mmHg 49%
    12:00 +34°C° 0 mm 2 mps 762 mmHg 47%
    13:00 +35°C° 0 mm 3 mps 762 mmHg 45%
    14:00 +34°C° 0 mm 3 mps 762 mmHg 47%
    15:00 +34°C° 0 mm 4 mps 761 mmHg 49%
    16:00 +33°C° 0 mm 4 mps 761 mmHg 51%
    17:00 +32°C° 0 mm 4 mps 761 mmHg 58%
    18:00 +29°C° 0 mm 3 mps 761 mmHg 64%
    19:00 +28°C° 0 mm 3 mps 761 mmHg 70%
    20:00 +27°C° 0 mm 3 mps 761 mmHg 74%
    21:00 +26°C° 0 mm 3 mps 762 mmHg 77%
    22:00 +26°C° 0 mm 2 mps 762 mmHg 80%
    23:00 +26°C° 0 mm 2 mps 762 mmHg 81%

    Day after tomorrow, 21 May, Tuesday

    Time Temperature Precipitation Wind Pressure Humidity
    00:00 +25°C° 0 mm 2 mps 762 mmHg 83%
    01:00 +25°C° 0 mm 2 mps 762 mmHg 85%
    02:00 +25°C° 0 mm 2 mps 761 mmHg 86%
    03:00 +24°C° 0 mm 2 mps 761 mmHg 88%
    04:00 +24°C° 0 mm 2 mps 761 mmHg 89%
    05:00 +25°C° 0 mm 1 mps 761 mmHg 86%
    06:00 +25°C° 0 mm 1 mps 761 mmHg 83%
    07:00 +26°C° 0 mm 1 mps 761 mmHg 80%
    08:00 +29°C° 0 mm 1 mps 761 mmHg 69%
    09:00 +31°C° 0 mm 1 mps 761 mmHg 58%
    10:00 +32°C° 0 mm 0 mps 762 mmHg 47%
    11:00 +34°C° 0 mm 1 mps 761 mmHg 43%
    12:00 +36°C° 0 mm 2 mps 761 mmHg 39%
    13:00 +36°C° 0 mm 3 mps 761 mmHg 36%
    14:00 +35°C° 0 mm 3 mps 761 mmHg 38%
    15:00 +35°C° 0 mm 4 mps 761 mmHg 40%
    16:00 +34°C° 0 mm 4 mps 760 mmHg 42%
    17:00 +32°C° 0 mm 4 mps 760 mmHg 50%
    18:00 +29°C° 0 mm 3 mps 760 mmHg 58%
    19:00 +28°C° 0 mm 3 mps 761 mmHg 66%
    20:00 +27°C° 0 mm 3 mps 761 mmHg 69%
    21:00 +26°C° 0 mm 3 mps 762 mmHg 73%
    22:00 +26°C° 0 mm 2 mps 762 mmHg 77%
    23:00 +25°C° 0 mm 2 mps 762 mmHg 78%

    22 May, Wednesday

    Time Temperature Precipitation Wind Pressure Humidity
    00:00 +25°C° 0 mm 2 mps 762 mmHg 79%
    01:00 +25°C° 0 mm 2 mps 762 mmHg 81%
    02:00 +24°C° 0 mm 2 mps 762 mmHg 82%
    03:00 +24°C° 0 mm 1 mps 762 mmHg 83%
    04:00 +24°C° 0 mm 1 mps 762 mmHg 85%
    05:00 +25°C° 0 mm 1 mps 762 mmHg 81%
    06:00 +23°C° 0 mm 0 mps 763 mmHg 78%
    07:00 +24°C° 0 mm 0 mps 763 mmHg 75%
    08:00 +28°C° 0 mm 1 mps 763 mmHg 65%
    09:00 +30°C° 0 mm 1 mps 764 mmHg 56%
    10:00 +32°C° 0 mm 2 mps 764 mmHg 46%
    11:00 +34°C° 0 mm 2 mps 764 mmHg 44%
    12:00 +34°C° 0 mm 3 mps 764 mmHg 42%
    13:00 +35°C° 0 mm 4 mps 764 mmHg 40%
    14:00 +34°C° 0 mm 4 mps 764 mmHg 43%
    15:00 +34°C° 0 mm 4 mps 763 mmHg 45%
    16:00 +33°C° 0 mm 5 mps 763 mmHg 48%
    17:00 +32°C° 0 mm 4 mps 763 mmHg 54%
    18:00 +29°C° 0 mm 4 mps 764 mmHg 61%
    19:00 +28°C° 0 mm 4 mps 764 mmHg 68%
    20:00 +27°C° 0 mm 3 mps 765 mmHg 72%
    21:00 +27°C° 0 mm 3 mps 765 mmHg 76%
    22:00 +26°C° 0 mm 3 mps 765 mmHg 81%
    23:00 +26°C° 0 mm 4 mps 765 mmHg 81%

    23 May, Thursday

    Time Temperature Precipitation Wind Pressure Humidity
    00:00 +26°C° 0 mm 4 mps 765 mmHg 82%
    01:00 +26°C° 0 mm 4 mps 765 mmHg 82%
    02:00 +25°C° 0 mm 4 mps 765 mmHg 82%
    03:00 +25°C° 0 mm 4 mps 764 mmHg 82%
    04:00 +25°C° 0 mm 4 mps 764 mmHg 81%
    05:00 +25°C° 0 mm 4 mps 765 mmHg 78%
    06:00 +26°C° 0 mm 4 mps 765 mmHg 75%
    07:00 +27°C° 0 mm 4 mps 765 mmHg 72%
    08:00 +28°C° 0 mm 5 mps 766 mmHg 67%
    09:00 +29°C° 0 mm 5 mps 766 mmHg 62%
    10:00 +30°C° 0 mm 5 mps 766 mmHg 57%
    11:00 +32°C° 0 mm 5 mps 766 mmHg 55%
    12:00 +32°C° 0 mm 5 mps 766 mmHg 54%
    13:00 +33°C° 0 mm 5 mps 766 mmHg 52%
    14:00 +32°C° 0 mm 5 mps 765 mmHg 54%
    15:00 +32°C° 0 mm 5 mps 765 mmHg 55%
    16:00 +30°C° 0 mm 5 mps 765 mmHg 57%
    17:00 +29°C° 0 mm 5 mps 765 mmHg 63%
    18:00 +28°C° 0 mm 4 mps 765 mmHg 68%
    19:00 +27°C° 0 mm 4 mps 765 mmHg 74%
    20:00 +26°C° 0 mm 4 mps 766 mmHg 76%
    21:00 +26°C° 0 mm 4 mps 766 mmHg 78%
    22:00 +25°C° 0 mm 4 mps 766 mmHg 80%
    23:00 +25°C° 0 mm 4 mps 766 mmHg 80%

    24 May, Friday

    Time Temperature Precipitation Wind Pressure Humidity
    00:00 +25°C° 0 mm 3 mps 766 mmHg 81%
    01:00 +25°C° 0 mm 3 mps 765 mmHg 81%
    02:00 +24°C° 0 mm 3 mps 765 mmHg 82%
    03:00 +24°C° 0 mm 3 mps 765 mmHg 83%
    04:00 +24°C° 0 mm 3 mps 764 mmHg 84%
    05:00 +25°C° 0 mm 3 mps 765 mmHg 81%
    06:00 +26°C° 0 mm 3 mps 765 mmHg 77%
    07:00 +27°C° 0 mm 3 mps 766 mmHg 74%
    08:00 +28°C° 0 mm 3 mps 766 mmHg 68%
    09:00 +29°C° 0 mm 3 mps 766 mmHg 61%
    10:00 +31°C° 0 mm 3 mps 766 mmHg 55%
    11:00 +31°C° 0 mm 3 mps 766 mmHg 53%
    12:00 +33°C° 0 mm 4 mps 766 mmHg 50%
    13:00 +34°C° 0 mm 4 mps 765 mmHg 47%
    14:00 +34°C° 0 mm 4 mps 765 mmHg 49%
    15:00 +33°C° 0 mm 4 mps 765 mmHg 50%
    16:00 +33°C° 0 mm 4 mps 764 mmHg 51%
    17:00 +30°C° 0 mm 3 mps 764 mmHg 58%
    18:00 +29°C° 0 mm 3 mps 765 mmHg 64%
    19:00 +27°C° 0 mm 3 mps 765 mmHg 71%
    20:00 +27°C° 0 mm 2 mps 765 mmHg 75%
    21:00 +26°C° 0 mm 2 mps 765 mmHg 79%
    22:00 +25°C° 0 mm 2 mps 765 mmHg 82%
    23:00 +25°C° 0 mm 2 mps 765 mmHg 84%
    Show more